Location: Unspecified
(0.0000°N, 0.0000°E)
Time: 15:41:51
(UTC+02:00)

Haruka - Visible Passes

Search period start: 24 August 2016 00:00
Search period end: 03 September 2016 00:00
Orbit: 535 x 21228 km, 31.3° (Epoch: 23 August)

Date Brightness Start Highest point End Pass type
(mag) Time Alt. Az. Time Alt. Az. Time Alt. Az.
24 Aug 6.6 07:29:00 10° WSW 07:48:54 81° NW 12:23:02 10° ENE visible
25 Aug 5.8 19:30:21 10° WNW 20:31:55 54° SW 20:39:49 10° SSE visible
26 Aug 7.1 03:21:13 14° ESE 03:21:13 14° ESE 03:28:07 10° E visible
26 Aug 5.8 21:20:49 10° W 21:39:28 24° SW 21:45:24 10° S visible
27 Aug 6.2 04:25:47 35° SE 04:27:42 36° SE 05:17:14 10° ENE visible
28 Aug 5.8 05:30:20 42° SSW 05:36:17 65° SE 08:29:26 10° NE visible
29 Aug 6.2 06:34:54 23° WSW 06:47:36 89° NW 11:05:39 10° ENE visible
31 Aug 5.9 20:02:18 10° WNW 20:42:47 36° SW 20:50:21 10° SSE visible
01 Sep 6.8 03:32:28 24° ESE 03:32:28 24° ESE 03:52:34 10° E visible
01 Sep 6.2 21:43:25 10° WSW 21:50:24 14° SW 21:54:24 10° SSW visible
02 Sep 5.9 04:37:03 51° SSE 04:38:35 52° SE 05:56:41 10° ENE visible
